GW5385 Weather Reports


time (UTC)temp
C
wind
direction
speed
KPH
gust
KPH
rain 1hr
cm
rain 24hr
cm
rain mn
cm
humidity
%
barometer
mb
20260904151544 18 106 6.4 11.3 0.00 0.00 0.00 42 1009.9
20260904150041 16 56 4.8 9.7 0.00 0.00 0.00 47 1009.7
20260904144539 16 68 6.4 12.9 0.00 0.00 0.00 46 1009.8
20260904143039 17 78 9.7 14.5 0.00 0.00 0.00 46 1009.6
20260904141540 15 71 3.2 8.0 0.00 0.00 0.00 52 1009.9
20260904140129 14 336 0.0 4.8 0.00 0.00 0.00 53 1010.1
20260904134533 13 30 9.7 16.1 0.00 0.00 0.00 54 1009.5
20260904133025 13 53 4.8 9.7 0.00 0.00 0.00 56 1009.8
20260904131523 12 11 0.0 8.0 0.00 0.00 0.00 60 1010.0
20260904130021 11 37 3.2 11.3 0.00 0.00 0.00 60 1009.8
20260904124520 11 52 3.2 9.7 0.00 0.00 0.00 62 1009.6
20260904123019 11 47 6.4 9.7 0.00 0.00 0.00 61 1009.5
20260904121521 11 4 4.8 9.7 0.00 0.00 0.00 59 1009.4
20260904120015 11 46 6.4 11.3 0.00 0.00 0.00 58 1009.6
20260904114514 12 44 6.4 12.9 0.00 0.00 0.00 57 1009.7
20260904113013 12 48 11.3 16.1 0.00 0.00 0.00 55 1009.6
20260904111512 12 50 9.7 16.1 0.00 0.00 0.00 54 1009.6
20260904110007 13 47 12.9 19.3 0.00 0.00 0.00 53 1009.7
20260904104507 12 60 6.4 12.9 0.00 0.00 0.00 55 1009.9
20260904103003 13 51 8.0 17.7 0.00 0.00 0.00 54 1010.2
20260904101601 12 46 8.0 12.9 0.00 0.00 0.00 57 1010.4
20260904100100 12 50 6.4 9.7 0.00 0.00 0.00 56 1010.5
20260904094530 12 44 9.7 19.3 0.00 0.00 0.00 55 1010.4
20260904093029 12 60 12.9 20.9 0.00 0.00 0.00 55 1010.6
20260904091525 12 56 11.3 19.3 0.00 0.00 0.00 55 1010.7
20260904090024 12 63 11.3 20.9 0.00 0.00 0.00 55 1010.6
20260904084522 12 56 6.4 12.9 0.00 0.00 0.00 57 1010.8
20260904083021 12 57 9.7 16.1 0.00 0.00 0.00 56 1011.0
20260904081512 11 20 6.4 9.7 0.00 0.00 0.00 61 1011.0
20260904080011 10 31 3.2 4.8 0.00 0.00 0.00 68 1011.3
20260904074517 9 308 0.0 0.0 0.00 0.00 0.00 68 1011.4
20260904073007 10 297 1.6 4.8 0.00 0.00 0.00 64 1011.6
20260904071558 11 69 0.0 0.0 0.00 0.00 0.00 63 1011.6
20260904070121 11 73 0.0 0.0 0.00 0.00 0.00 61 1011.8
20260904064556 12 295 0.0 1.6 0.00 0.00 0.00 63 1011.7
20260904063101 11 295 0.0 0.0 0.00 0.00 0.00 65 1011.7
20260904061525 11 295 0.0 1.6 0.00 0.00 0.00 63 1011.9
20260904060024 10 291 0.0 1.6 0.00 0.00 0.00 64 1012.0
20260904054517 11 295 0.0 3.2 0.00 0.00 0.00 63 1012.0
20260904053020 11 304 0.0 4.8 0.00 0.00 0.00 59 1012.3
20260904051515 12 300 0.0 1.6 0.00 0.00 0.00 60 1012.5
20260904050014 12 300 0.0 0.0 0.00 0.00 0.00 60 1012.7
20260904044512 11 300 0.0 0.0 0.00 0.00 0.00 60 1012.5
20260904043015 11 300 0.0 1.6 0.00 0.00 0.00 61 1012.4
20260904041512 10 300 0.0 0.0 0.00 0.00 0.00 62 1012.3
20260904040011 10 300 0.0 1.6 0.00 0.00 0.00 63 1012.2
20260904034507 11 300 0.0 0.0 0.00 0.00 0.00 59 1012.2
20260904033007 10 302 0.0 4.8 0.00 0.00 0.00 61 1012.3
20260904031505 11 297 0.0 1.6 0.00 0.00 0.00 59 1012.3
20260904030006 11 317 0.0 0.0 0.00 0.00 0.00 57 1012.4
20260904024601 12 318 0.0 1.6 0.00 0.00 0.00 55 1012.1
20260904023100 12 296 0.0 1.6 0.00 0.00 0.00 53 1011.8
20260904021607 13 344 0.0 4.8 0.00 0.00 0.00 49 1011.6
20260904020058 15 319 0.0 0.0 0.00 0.00 0.00 47 1011.5
20260904014636 16 320 0.0 3.2 0.00 0.00 0.00 45 1011.4
20260904013055 17 320 0.0 4.8 0.00 0.00 0.00 42 1011.6
20260904011559 19 307 0.0 8.0 0.00 0.00 0.00 39 1011.6
20260904004553 20 290 3.2 11.3 0.00 0.03 0.00 37 1011.4
20260904003057 21 297 4.8 20.9 0.00 0.03 0.00 36 1011.3
20260904001549 21 272 9.7 19.3 0.00 0.03 0.00 35 1011.3
20260904000046 22 329 6.4 16.1 0.00 0.10 0.00 36 1011.2
20260903234542 22 276 1.6 12.9 0.00 0.10 0.00 34 1010.9
20260903233051 22 300 3.2 24.1 0.00 0.10 0.00 34 1010.9
20260903231542 22 312 3.2 19.3 0.00 0.10 0.00 34 1011.0
20260903230048 23 302 6.4 12.9 0.00 0.10 0.00 34 1010.8
20260903224538 23 293 3.2 16.1 0.00 0.10 0.00 35 1010.7
20260903223034 23 260 3.2 8.0 0.00 0.10 0.00 36 1010.4
20260903221534 22 266 4.8 12.9 0.00 0.10 0.00 36 1010.3
20260903220040 24 240 4.8 12.9 0.00 0.10 0.00 33 1010.2
20260903214502 24 254 6.4 20.9 0.00 0.10 0.00 32 1010.0
20260903213101 23 314 3.2 8.0 0.00 0.10 0.00 35 1009.9
20260903211600 23 237 3.2 12.9 0.00 0.10 0.00 33 1009.8
20260903210101 22 227 3.2 12.9 0.00 0.10 0.00 34 1009.9
20260903204556 22 243 4.8 9.7 0.00 0.10 0.00 34 1009.9
20260903203105 22 283 1.6 9.7 0.00 0.10 0.00 36 1009.9
20260903201554 22 269 4.8 12.9 0.00 0.10 0.00 36 1010.0
20260903200023 22 248 1.6 11.3 0.00 0.10 0.00 36 1010.1
20260903194523 23 269 8.0 19.3 0.00 0.10 0.00 35 1010.2
20260903193020 22 302 4.8 22.5 0.00 0.10 0.00 36 1010.1
20260903191519 23 245 6.4 12.9 0.00 0.10 0.00 34 1010.1
20260903190018 23 238 8.0 20.9 0.00 0.10 0.00 35 1010.0
20260903184515 22 238 12.9 25.7 0.00 0.10 0.00 36 1010.0
20260903183010 22 246 14.5 24.1 0.00 0.10 0.00 36 1009.8
20260903181509 22 250 17.7 29.0 0.00 0.10 0.00 36 1009.8
20260903180007 21 210 8.0 20.9 0.00 0.10 0.00 39 1009.9
20260903174505 21 233 8.0 20.9 0.00 0.10 0.00 40 1010.2
20260903173101 21 222 8.0 16.1 0.00 0.10 0.00 43 1010.2
20260903171558 20 246 3.2 12.9 0.00 0.10 0.00 49 1010.3
20260903170054 18 231 4.8 17.7 0.00 0.10 0.00 50 1010.4
20260903164548 17 226 4.8 11.3 0.00 0.10 0.00 53 1010.5
20260903163039 16 236 1.6 6.4 0.00 0.10 0.00 57 1010.3
20260903161536 13 257 0.0 0.0 0.00 0.10 0.00 68 1010.4
20260903160031 12 243 0.0 1.6 0.00 0.10 0.00 71 1010.5
20260903154528 11 27 0.0 0.0 0.00 0.10 0.00 76 1010.4
20260903153022 11 27 0.0 4.8 0.00 0.10 0.00 77 1010.5